Terminal Aerodrome Forecast
Issued by NWS Central Illinois

Home | Current Version | Previous Version | Text Only | Print | Product List | Glossary On
Versions: 1 2 3 4 5 6 7 8 9 10 11 12 13 14 15 16 17
000
FTUS43 KILX 291735
TAFSPI
TAF
KSPI 291735Z 2918/3018 33010G18KT P6SM SCT020 SCT250
     FM300100 29004KT P6SM SKC=

USA.gov is the U.S. government's official web portal to all federal, state and local government web resources and services.